Flag for Belgium Weather past 2 weeks in Ghent, Belgium

Now
63 °F

Mild.


Feels Like: 63 °F
Forecast: 64 / 87 °F
Wind: N/A

Location: Munte

Current Time: Aug 2, 2015 at 11:23:31 AM

Latest Report: Aug 2, 2015 at 10:00 AM


Visibility: 13 mi

Pressure: 30.14 "Hg

Humidity: 63%

Dew point: 50 °F

Location of GhentLocation

Historic Weather in Ghent — Graph

°F

Ghent temperature yesterday

Maximum temperature yesterday: 72 °F (at 3:00 PM)
Minimum temperature yesterday: 50 °F (at 5:00 AM)
Average temperature yesterday: 62 °F

Past Weeks' High & Low Weather Summary

 TemperatureHumidityPressure
High77 °F (Jul 20, 6:00 PM)100% (Jul 31, 7:00 AM)30.17 "Hg (Jul 31, 7:00 AM)
Low44 °F (Jul 31, 6:00 AM)37% (Jul 18, 6:00 PM)29.50 "Hg (Jul 25, 3:00 AM)
Average62 °F74%29.91 "Hg
* Reported Jul 18 10:00 AM — Aug 2 10:00 AM, Ghent, Weather by CustomWeather, © 2015

Note: Actual official high and low records may vary slightly from our data, if they occured in-between our weather recording intervals... More about our weather records

Advertising

Ghent weather history for previous 24 hours

 ConditionsComfort  
Time TempWeatherWind HumidityBarometerVisibility
10:00 AM
Sun, Aug 2
63 °FMild.N/A63%30.14 "Hg12 mi
9:00 AM59 °FCool.N/A77%30.14 "Hg9 mi
8:00 AM55 °FCool.N/A83%30.14 "Hg8 mi
7:00 AM51 °FCool.N/A89%30.12 "Hg5 mi
4:00 AM53 °FCool.N/A79%30.11 "Hg9 mi
3:00 AM54 °FCool.N/A82%30.12 "Hg9 mi
12:00 AM56 °FCool.N/A76%30.11 "Hg12 mi
11:00 PM
Sat, Aug 1
58 °FCool.N/A72%30.09 "Hg12 mi
10:00 PM61 °FCool.N/A67%30.08 "Hg12 mi
9:00 PM65 °FMild.3 mph56%30.05 "Hg12 mi
8:00 PM69 °FMild.N/A51%30.04 "Hg12 mi
6:00 PM71 °FMild.2 mph47%30.02 "Hg12 mi
5:00 PM71 °FMild.N/A43%30.02 "Hg12 mi
4:00 PM71 °FMild.N/A41%30.02 "Hg12 mi
3:00 PM72 °FMild.2 mph37%30.01 "Hg12 mi
2:00 PM70 °FMild.N/A42%30.01 "Hg12 mi
1:00 PM70 °FMild.N/A40%30.01 "Hg12 mi
12:00 PM68 °FMild.N/A41%30.02 "Hg12 mi
11:00 AM68 °FMild.N/A49%30.01 "Hg12 mi
Weather by CustomWeather, © 2015

See weather overviewHow to use our weather pages